TITAN 3C TRANSTAGE DEB, 19595

Orbit data source: Space-Track

TITAN 3C TRANSTAGE DEB, 19595 is space debris in HEO originally from a launch on Tue, 21 Dec 1965 UTC launched from the Air Force Eastern Test Range (AFETR). Debris objects in space refer to the collection of defunct objects orbiting the Earth. Examples of debris include non-operational satellites, rocket bodies, and fragments generated from explosions, collisions, or faulty payload assembly.

Loading next visibility...
Identifier
19595, 1965-108AB
Orbit
HEO
Last TLE update
1 day ago
Origin
Manufacturer
Unknown
Mission
Spacecraft
Bus & Motor
Unknown
Mass
Unknown
Launch date (UTC)
1965-12-21 (59 years ago)
Launch vehicle
Unknown
Launch site
Air Force Eastern Test Range (AFETR)
Object type
Payload
Rocket body
Debris
Shape & HBR
Unknown
Radar Cross Section
Small (<0.1 m²)

Expand to show TLE details & history

TLE from 1 day ago
0 TITAN 3C TRANSTAGE DEB
1 19595U 65108AB  25128.08322361  .00003920  00000-0  37724-2 0  9991
2 19595  26.9851  85.8831 5962515  48.6117 349.1263  3.99423353180766
Epoch: 2025-05-08T01:59Z
Definitive object data (Epoch: 2025-05-08T01:59:50.519Z)
Latitude
0.00006°
Longitude
-170.27673°
Altitude
1,384.737 km
Speed
8.885 km/s
True Right ascension
05h 43m 22s
True Declination
0° 00' 00"
Sunlit
Object was in daylight at TLE epoch
Visualization TLE readout
Latitude
-19.91568°
Longitude
54.22115°
Altitude
20,388.216 km
Speed
2.456 km/s
Apparent Right ascension
21h 19m 54s
Apparent Declination
-25° 45' 03"
Sunlit
Object is in daylight
Visualization observer readout
Local Sidereal Time
13:17:09
Azimuth
92.828° ESE
Elevation
-39.15°
Doppler factor
1
Orbital elements
Apogee altitude
20,411.811 km
Perigee altitude
397.989 km
Semi-major axis
16,783.037 km
Eccentricity
0.5962515
Inclination
26.9851°
RAAN
85.8831°
Arg. of periapsis
48.6117°
True anomaly
311.24732°
Mean anomaly
349.1263°
Eccentric anomaly
334.3245°
Mean motion
0.99825 °/min
BSTAR
0.0037724
Orbital period
360.63 mins
Loading maneuver chart data...
Loading SW <> Apogee altitude chart data...

TITAN 3C TRANSTAGE DEB Visibility forecast

Observer location: undefined°, undefined°

Span
Click to sort rows by Start time (UTC) header in descending order
Start Az.
Max El. time (UTC)
Max El. Az.
Max El.
End time (UTC)
End Az.
185 mins2025-05-09 08:32:31.780Z251.553° W2025-05-09 08:52:31.780Z195.363° SSW30.254°2025-05-09 11:37:31.780Z156.797° SSE
5 mins2025-05-10 02:20:31.780Z167.772° S2025-05-10 02:21:31.780Z150.904° SSE16.66°2025-05-10 02:25:31.780Z114.621° SE
|